TimeEDT,TemperatureF,Dew PointF,Humidity,Sea Level PressureIn,VisibilityMPH,Wind Direction,Wind SpeedMPH,Gust SpeedMPH,PrecipitationIn,Events,Conditions,WindDirDegrees,DateUTC
12:53 AM,80.1,73.9,81,29.99,10.0,North,3.5,-,N/A,,Partly Cloudy,10,2013-10-10 04:53:00
1:53 AM,80.1,73.9,81,29.99,10.0,Calm,Calm,-,N/A,,Partly Cloudy,0,2013-10-10 05:53:00
2:49 AM,80.6,73.4,79,29.97,10.0,Calm,Calm,-,N/A,,Mostly Cloudy,0,2013-10-10 06:49:00
2:53 AM,80.1,73.9,81,29.97,10.0,Calm,Calm,-,N/A,,Mostly Cloudy,0,2013-10-10 06:53:00
3:18 AM,78.8,73.4,83,29.96,10.0,NE,3.5,-,N/A,Rain,Light Rain,40,2013-10-10 07:18:00
3:53 AM,78.1,73.9,87,29.96,10.0,NE,3.5,-,N/A,,Overcast,50,2013-10-10 07:53:00
4:53 AM,78.1,75.9,93,29.95,10.0,Calm,Calm,-,N/A,,Clear,0,2013-10-10 08:53:00
5:53 AM,78.1,73.9,87,29.96,10.0,ENE,3.5,-,N/A,,Clear,60,2013-10-10 09:53:00
6:53 AM,79.0,75.0,88,29.96,10.0,NE,9.2,-,N/A,,Partly Cloudy,50,2013-10-10 10:53:00
7:53 AM,79.0,75.0,88,29.98,10.0,NE,5.8,-,N/A,,Clear,50,2013-10-10 11:53:00
8:53 AM,81.0,75.0,82,29.99,10.0,NE,6.9,-,N/A,,Partly Cloudy,50,2013-10-10 12:53:00
9:53 AM,82.9,75.0,77,30.00,10.0,NE,9.2,-,N/A,,Clear,40,2013-10-10 13:53:00
10:53 AM,82.9,75.0,77,30.02,10.0,NNE,8.1,-,N/A,,Scattered Clouds,30,2013-10-10 14:53:00
11:53 AM,84.0,75.0,74,30.02,10.0,NNE,10.4,-,N/A,,Partly Cloudy,30,2013-10-10 15:53:00
12:53 PM,84.9,75.0,72,30.01,10.0,NNE,8.1,-,N/A,,Clear,30,2013-10-10 16:53:00
1:53 PM,86.0,75.0,70,29.99,10.0,NNE,10.4,16.1,N/A,,Clear,30,2013-10-10 17:53:00
2:53 PM,87.1,72.0,61,29.96,10.0,NE,10.4,17.3,N/A,,Clear,40,2013-10-10 18:53:00
3:53 PM,86.0,73.0,65,29.95,10.0,North,10.4,-,N/A,,Clear,10,2013-10-10 19:53:00
4:53 PM,86.0,73.0,65,29.95,10.0,North,8.1,-,N/A,,Clear,360,2013-10-10 20:53:00
5:53 PM,84.9,72.0,65,29.94,10.0,North,11.5,-,N/A,,Clear,360,2013-10-10 21:53:00
6:53 PM,82.9,72.0,69,29.95,10.0,NNE,9.2,-,N/A,,Clear,20,2013-10-10 22:53:00
7:53 PM,82.0,72.0,71,29.96,10.0,NNE,6.9,-,N/A,,Clear,20,2013-10-10 23:53:00
8:53 PM,82.0,72.0,71,29.99,10.0,NNE,3.5,-,N/A,,Clear,20,2013-10-11 00:53:00
9:53 PM,81.0,73.0,77,30.00,10.0,NNE,3.5,-,N/A,,Partly Cloudy,30,2013-10-11 01:53:00
10:53 PM,81.0,73.0,77,29.99,10.0,NNE,3.5,-,N/A,,Scattered Clouds,20,2013-10-11 02:53:00
11:26 PM,80.6,73.4,79,29.98,10.0,SE,10.4,-,N/A,,Mostly Cloudy,130,2013-10-11 03:26:00
11:49 PM,75.2,71.6,89,30.00,2.5,NE,6.9,18.4,N/A,Rain,Rain,50,2013-10-11 03:49:00
11:53 PM,75.0,71.1,87,29.99,4.0,Variable,4.6,-,N/A,Rain,Rain,0,2013-10-11 03:53:00